Location: Orinda
(37.8771°N, 122.1797°W)
Time: 21:50:05
(UTC+00:00)

USA 238 DEB - Pass Details

Date: 21 October 2019
Orbit: 1028 x 1184 km, 63.4° (Epoch: 07 November)

Event Time Altitude Azimuth Distance (km) Brightness Sun altitude
Exits shadow 12:23:25 39° 230° (SW) 1,676 4.3 -24.3°
Drops below altitude 10° 12:29:20 10° 180° (S) 3,091 6.1 -23.1°
Sets 12:32:15 0° 173° (S) 4,056 6.8 -22.5°
